一网星座-0579星 (ONEWEB-0579)

导读

ONEWEB-0579是英国OneWeb低轨卫星星座中的一员,于2023年3月26日发射入轨。该卫星运行于1200公里高度低轨道,属于OneWeb全球卫星互联网组网计划的组成部分,旨在提供低延迟的全球宽带互联网接入服务,可满足偏远地区通信、物联网连接等需求,后续批次卫星还增加了星间链路以优化网络覆盖,其技术特性也具备潜在军事应用潜力。

Basic Information
目录编号:
56068
目录名称:
ONEWEB-0579
国际标识:
2023-043Y
轨道中心:
EARTH
卫星名称:
一网星座-0579星
卫星全名:
一网星座-0579星 (ONEWEB-0579)
卫星状态:
在轨 (已飞行1266 天)
发射日期:
2023-03-26 UTC
国别 :
英国 (GB)
星等 :
--
This satellite is enrolled in the Space Conjunction Data Service (SCDS) and the current flight risk assessment level is: No High Risk
Orbit Information
数据来源 国际轨道数据 AOE轨道数据
星历时间 2026-09-12T06:01:55+0800
9小时前
查看轨道信息
2026-09-10T11:00:00+0800
2天前
查看轨道信息
半长轴 7555.897km 7555.896km
偏心率 0.0002238 0.000232
轨道倾角 87.927° 87.929°
近地点辐角 77.270° 73.379°
升交点赤经 226.710° 227.066°
平近点角 282.868° 39.535°
近地点 1176.068km 1176.006km
远地点 1179.452km 1179.512km
周期 108.940分钟 108.940分钟
每日圈数 13.218244 13.218246
Detailed Information
平衡模式:
三轴稳定
覆盖范围:
全球
运营商:
一网卫星公司
运营商所在国:
英国
制造商(研发单位):
一网卫星公司
制造商所在国:
英国
使用方式:
暂无
Satellite Introduction
OneWeb卫星网络由648颗重约125公斤的微型卫星组成,运行在1200公里的轨道上。 每颗卫星都能够提供至少每秒8千兆位的吞吐量,以使用其高吞吐量的Ku频段有效载荷为家庭和移动平台提供互联网接入。该卫星仍在工作。
2D Orbit Map
3D Orbit Map
Orbit Altitude Analysis Chart
Orbit Inclination Analysis Chart
Orbit Comprehensive Analysis Chart
View Comprehensive Chart
Conjunction Data List
Event ID Objects TCA Miss Dist (km) Collision Risk Probability Collision Risk Index (CRI) Action
CDM_260919-140405-606805-671721
2026-09-19T
14:04:43+0000
1.344 km
极远距离
9.925709E-7 极低风险 0.35
Miss Distance Evolution Trend with All Objects
Collision Probability Evolution Trend with All Objects